Flag for U.S.A. Weather past 2 weeks in Fort Worth, Texas, U.S.A.

Now
89 °F

Sunny.


Feels Like: 92 °F
Forecast: 72 / 88 °F
Wind: 5 mph from Southeast

Location: Meacham International Airport

Current Time: Sep 16, 2014 at 4:32:38 PM

Latest Report: Sep 16, 2014 at 3:53 PM


Visibility: 10 mi

Pressure: 29.98 "Hg

Humidity: 48%

Dew point: 67 °F

Location of Fort WorthLocation

Historic Weather in Fort Worth — Graph

°F

Fort Worth temperature yesterday

Maximum temperature yesterday: 85 °F (at 4:53 PM)
Minimum temperature yesterday: 71 °F (at 6:53 AM)
Average temperature yesterday: 78 °F

Past Weeks' High & Low Weather Summary

 TemperatureHumidityPressure
High102 °F (Sep 10, 4:53 PM)94% (Sep 12, 1:02 PM)30.29 "Hg (Sep 12, 1:02 PM)
Low57 °F (Sep 13, 6:53 AM)31% (Sep 10, 4:53 PM)29.68 "Hg (Sep 10, 5:53 PM)
Average81 °F63%29.99 "Hg
* Reported Sep 1 2:53 PM — Sep 16 2:53 PM, Fort Worth, Weather by CustomWeather, © 2014

Note: Actual official high and low records may vary slightly from our data, if they occured in-between our weather recording intervals... More about our weather records

Advertising

Fort Worth weather history for previous 24 hours

 ConditionsComfort  
Time TempWeatherWind HumidityBarometerVisibility
2:53 PM
Sep 16
89 °FPassing clouds.7 mph50%30.00 "Hg10 mi
1:53 PM87 °FSunny.3 mph53%30.03 "Hg10 mi
12:53 PM86 °FPassing clouds.5 mph55%30.06 "Hg10 mi
11:53 AM84 °FSunny.6 mph63%30.08 "Hg10 mi
10:53 AM83 °FPassing clouds.No wind65%30.09 "Hg10 mi
9:53 AM80 °FSunny.5 mph69%30.10 "Hg10 mi
8:53 AM78 °FPassing clouds.3 mph76%30.09 "Hg10 mi
7:53 AM76 °FClear.3 mph80%30.09 "Hg9 mi
6:53 AM75 °FPassing clouds.No wind82%30.08 "Hg10 mi
5:53 AM76 °FPassing clouds.No wind80%30.07 "Hg10 mi
4:53 AM76 °FOvercast.No wind80%30.07 "Hg10 mi
3:53 AM77 °FPassing clouds.No wind74%30.07 "Hg10 mi
2:53 AM78 °FOvercast.No wind71%30.07 "Hg10 mi
1:53 AM77 °FPassing clouds.3 mph77%30.08 "Hg10 mi
12:53 AM78 °FPassing clouds.5 mph74%30.09 "Hg10 mi
11:53 PM
Sep 15
78 °FClear.5 mph76%30.09 "Hg10 mi
10:53 PM79 °FClear.3 mph72%30.10 "Hg10 mi
9:53 PM80 °FPassing clouds.5 mph69%30.09 "Hg10 mi
8:53 PM80 °FPassing clouds.5 mph69%30.07 "Hg9 mi
7:53 PM80 °FPartly sunny.5 mph69%30.06 "Hg10 mi
6:53 PM83 °FBroken clouds.6 mph59%30.06 "Hg10 mi
5:53 PM84 °FLight rain. Passing clouds.6 mph57%30.06 "Hg10 mi
4:53 PM85 °FScattered clouds.9 mph55%30.05 "Hg10 mi
Weather by CustomWeather, © 2014

See weather overviewHow to use our weather pages